This demonstration page uses our WeatherBlox Daily Observations layout. Learn more.

Left ArrowRight Arrow

Hourly Observations for January 26, 2017

Temp ( °F °C ) Dew Point ( °F °C ) Humidity (%) Winds ( mph kmh ) Pressure ( in mb ) Visibility ( mi km ) Precip ( " mm )
12:53 am 00:53 Clear 40 4.4 37 2.8 89 89 NNW 3 6 30.38 1029 10 16 0.00 0.00
1:53 am 01:53 Mostly Cloudy 40 4.4 37 2.8 89 89 NW 3 6 30.39 1029 10 16 0.00 0.00
2:53 am 02:53 Cloudy 40 4.4 37 2.8 89 89 Calm 30.41 1030 10 16 0.00 0.00
3:53 am 03:53 Mostly Clear 39 3.9 37 2.8 93 93 Calm 30.41 1030 10 16 0.00 0.00
4:53 am 04:53 Mostly Cloudy 38 3.3 36 2.2 93 93 Calm 30.42 1030 10 16 0.00 0.00
5:53 am 05:53 Clear 37 2.8 35 1.7 93 93 NW 3 6 30.42 1030 10 16 0.00 0.00
6:53 am 06:53 Clear 36 2.2 34 1.1 93 93 NNW 3 6 30.44 1031 10 16 0.00 0.00
7:53 am 07:53 Sunny 35 1.7 34 1.1 96 96 NNW 5 7 30.45 1031 10 16 0.00 0.00
8:53 am 08:53 Sunny 42 5.6 36 2.2 79 79 N 5 7 30.47 1032 10 16 0.00 0.00
9:53 am 09:53 Sunny 46 7.8 36 2.2 68 68 N 5 7 30.48 1032 10 16 0.00 0.00
10:53 am 10:53 Sunny 50 10 36 2.2 59 59 N 5 7 30.48 1032 10 16 0.00 0.00
11:53 am 11:53 Sunny 53 11.7 35 1.7 51 51 VRB 6 9 30.46 1031 10 16 0.00 0.00
12:53 pm 12:53 Sunny 56 13.3 34 1.1 44 44 VRB 5 7 30.43 1031 10 16 0.00 0.00
1:53 pm 13:53 Sunny 58 14.4 33 0.6 39 39 N 12 19 30.43 1031 10 16 0.00 0.00
2:53 pm 14:53 Sunny 59 15 32 0 36 36 N 9 15 30.42 1030 N/A 0.00 0.00
3:53 pm 15:53 Sunny 58 14.4 33 0.6 39 39 NNE 15 24 30.43 1030 10 16 0.00 0.00
4:53 pm 16:53 Sunny 54 12.2 35 1.7 49 49 N 13 20 30.44 1031 10 16 0.00 0.00
5:53 pm 17:53 Clear 52 11.1 34 1.1 50 50 N 8 13 30.45 1031 10 16 0.00 0.00
6:53 pm 18:53 Clear 51 10.6 35 1.7 54 54 N 7 11 30.46 1031 10 16 0.00 0.00
7:53 pm 19:53 Clear 47 8.3 36 2.2 66 66 NNW 6 9 30.47 1032 10 16 0.00 0.00
8:53 pm 20:53 Clear 44 6.7 36 2.2 73 73 N 5 7 30.48 1032 10 16 0.00 0.00
9:53 pm 21:53 Clear 44 6.7 35 1.7 71 71 NW 6 9 30.50 1033 10 16 0.00 0.00
10:53 pm 22:53 Clear 43 6.1 35 1.7 74 74 NW 6 9 30.52 1034 10 16 0.00 0.00
11:53 pm 23:53 Clear 42 5.6 35 1.7 76 76 Calm 30.53 1034 10 16 0.00 0.00

Powered by AerisWeather